When you browse on this site, cookies collect data to enhance your experience and personalize the content and advertising you see.
Visit our Privacy Policy to learn more. By continuing to use the site, you agree to this use of cookies and data.
  • In Romania
  • List of Countries
  • For 7 days
  • Water Temperature
  • Satellite Maps
  • Weather Map
  • Weather Widgets
  • user-avatar
    Login

    Hourly Weather Saint-Laurent-du-Var

    Today, 20 June, Thursday

    Time Temperature Precipitation Wind Pressure Humidity
    00:00 +23°C° 0 mm 2 mps 756 mmHg 46%
    01:00 +23°C° 0 mm 2 mps 755 mmHg 46%
    02:00 +23°C° 0 mm 2 mps 755 mmHg 45%
    03:00 +23°C° 0 mm 2 mps 755 mmHg 45%
    04:00 +24°C° 0 mm 2 mps 755 mmHg 45%
    05:00 +25°C° 0 mm 1 mps 755 mmHg 44%
    06:00 +26°C° 0 mm 1 mps 755 mmHg 44%
    07:00 +27°C° 0 mm 1 mps 755 mmHg 42%
    08:00 +28°C° 0 mm 2 mps 755 mmHg 41%
    09:00 +29°C° 0 mm 2 mps 755 mmHg 39%
    10:00 +29°C° 0 mm 2 mps 755 mmHg 38%
    11:00 +30°C° 0 mm 2 mps 755 mmHg 36%
    12:00 +30°C° 0 mm 2 mps 755 mmHg 35%
    13:00 +30°C° 0 mm 2 mps 755 mmHg 37%
    14:00 +30°C° 0 mm 3 mps 755 mmHg 39%
    15:00 +29°C° 0 mm 3 mps 754 mmHg 41%
    16:00 +28°C° 0 mm 2 mps 755 mmHg 48%
    17:00 +27°C° 0 mm 2 mps 755 mmHg 54%
    18:00 +26°C° 0 mm 2 mps 755 mmHg 60%
    19:00 +25°C° 0 mm 1 mps 755 mmHg 62%
    20:00 +24°C° 0 mm 1 mps 755 mmHg 63%
    21:00 +23°C° 0 mm 1 mps 756 mmHg 64%
    22:00 +23°C° 0 mm 1 mps 756 mmHg 67%
    23:00 +23°C° 0 mm 1 mps 756 mmHg 69%

    Tomorrow, 21 June, Friday

    Time Temperature Precipitation Wind Pressure Humidity
    00:00 +22°C° 0 mm 1 mps 756 mmHg 71%
    01:00 +22°C° 0 mm 1 mps 756 mmHg 71%
    02:00 +21°C° 0 mm 2 mps 756 mmHg 70%
    03:00 +21°C° 0 mm 2 mps 756 mmHg 70%
    04:00 +23°C° 0 mm 2 mps 756 mmHg 68%
    05:00 +24°C° 0 mm 2 mps 756 mmHg 66%
    06:00 +24°C° 0 mm 2 mps 756 mmHg 64%
    07:00 +26°C° 0 mm 2 mps 756 mmHg 60%
    08:00 +27°C° 0 mm 3 mps 756 mmHg 57%
    09:00 +28°C° 0 mm 3 mps 756 mmHg 53%
    10:00 +29°C° 0 mm 3 mps 756 mmHg 53%
    11:00 +29°C° 0 mm 3 mps 756 mmHg 53%
    12:00 +29°C° 0 mm 3 mps 756 mmHg 52%
    13:00 +29°C° 0.1 mm 3 mps 756 mmHg 51%
    14:00 +29°C° 0.1 mm 3 mps 756 mmHg 50%
    15:00 +30°C° 0.1 mm 3 mps 755 mmHg 49%
    16:00 +28°C° 0 mm 2 mps 755 mmHg 57%
    17:00 +27°C° 0 mm 2 mps 755 mmHg 65%
    18:00 +26°C° 0 mm 1 mps 755 mmHg 72%
    19:00 +25°C° 0 mm 1 mps 755 mmHg 74%
    20:00 +24°C° 0 mm 1 mps 755 mmHg 77%
    21:00 +23°C° 0 mm 1 mps 756 mmHg 79%
    22:00 +23°C° 0 mm 1 mps 756 mmHg 80%
    23:00 +23°C° 0 mm 1 mps 756 mmHg 81%

    Day after tomorrow, 22 June, Saturday

    Time Temperature Precipitation Wind Pressure Humidity
    00:00 +20°C° 0 mm 0 mps 756 mmHg 82%
    01:00 +22°C° 0 mm 1 mps 755 mmHg 81%
    02:00 +22°C° 0 mm 1 mps 755 mmHg 79%
    03:00 +22°C° 0 mm 1 mps 755 mmHg 78%
    04:00 +23°C° 0 mm 1 mps 755 mmHg 74%
    05:00 +24°C° 0 mm 1 mps 755 mmHg 70%
    06:00 +25°C° 0 mm 1 mps 755 mmHg 66%
    07:00 +26°C° 0.1 mm 1 mps 755 mmHg 64%
    08:00 +27°C° 0.1 mm 2 mps 755 mmHg 63%
    09:00 +28°C° 0.1 mm 2 mps 755 mmHg 61%
    10:00 +28°C° 0.3 mm 2 mps 755 mmHg 59%
    11:00 +28°C° 0.3 mm 2 mps 755 mmHg 58%
    12:00 +29°C° 0.3 mm 3 mps 755 mmHg 56%
    13:00 +29°C° 0.3 mm 3 mps 755 mmHg 56%
    14:00 +29°C° 0.3 mm 3 mps 755 mmHg 57%
    15:00 +29°C° 0.3 mm 4 mps 755 mmHg 57%
    16:00 +28°C° 0 mm 3 mps 755 mmHg 59%
    17:00 +28°C° 0 mm 3 mps 755 mmHg 61%
    18:00 +27°C° 0 mm 3 mps 755 mmHg 64%
    19:00 +26°C° 0 mm 2 mps 755 mmHg 66%
    20:00 +25°C° 0 mm 2 mps 756 mmHg 68%
    21:00 +24°C° 0 mm 2 mps 756 mmHg 70%
    22:00 +24°C° 0 mm 2 mps 756 mmHg 68%
    23:00 +23°C° 0 mm 2 mps 756 mmHg 66%

    23 June, Sunday

    Time Temperature Precipitation Wind Pressure Humidity
    00:00 +23°C° 0 mm 2 mps 756 mmHg 64%
    01:00 +23°C° 0 mm 2 mps 756 mmHg 62%
    02:00 +23°C° 0 mm 2 mps 756 mmHg 59%
    03:00 +21°C° 0 mm 2 mps 756 mmHg 57%
    04:00 +23°C° 0 mm 2 mps 756 mmHg 55%
    05:00 +24°C° 0 mm 1 mps 756 mmHg 53%
    06:00 +25°C° 0 mm 1 mps 756 mmHg 51%
    07:00 +27°C° 0 mm 2 mps 756 mmHg 50%
    08:00 +28°C° 0 mm 2 mps 757 mmHg 49%
    09:00 +29°C° 0 mm 2 mps 757 mmHg 48%
    10:00 +30°C° 0 mm 2 mps 757 mmHg 49%
    11:00 +30°C° 0 mm 3 mps 757 mmHg 49%
    12:00 +31°C° 0 mm 3 mps 757 mmHg 49%
    13:00 +31°C° 0 mm 3 mps 757 mmHg 50%
    14:00 +31°C° 0 mm 2 mps 757 mmHg 51%
    15:00 +31°C° 0 mm 2 mps 757 mmHg 52%
    16:00 +30°C° 0 mm 2 mps 757 mmHg 56%
    17:00 +29°C° 0 mm 2 mps 757 mmHg 61%
    18:00 +28°C° 0 mm 1 mps 757 mmHg 65%
    19:00 +27°C° 0 mm 1 mps 758 mmHg 69%
    20:00 +26°C° 0 mm 1 mps 758 mmHg 72%
    21:00 +25°C° 0 mm 1 mps 758 mmHg 76%
    22:00 +24°C° 0 mm 1 mps 758 mmHg 75%
    23:00 +24°C° 0 mm 2 mps 759 mmHg 74%

    24 June, Monday

    Time Temperature Precipitation Wind Pressure Humidity
    00:00 +24°C° 0 mm 2 mps 759 mmHg 73%
    01:00 +24°C° 0 mm 2 mps 759 mmHg 72%
    02:00 +24°C° 0 mm 1 mps 759 mmHg 70%
    03:00 +24°C° 0 mm 1 mps 758 mmHg 69%
    04:00 +25°C° 0 mm 1 mps 759 mmHg 66%
    05:00 +26°C° 0 mm 1 mps 759 mmHg 64%
    06:00 +27°C° 0 mm 1 mps 759 mmHg 62%
    07:00 +29°C° 0 mm 1 mps 759 mmHg 57%
    08:00 +30°C° 0 mm 2 mps 759 mmHg 52%
    09:00 +32°C° 0 mm 2 mps 759 mmHg 47%
    10:00 +34°C° 0 mm 2 mps 759 mmHg 46%
    11:00 +34°C° 0 mm 2 mps 759 mmHg 44%
    12:00 +35°C° 0 mm 2 mps 759 mmHg 42%
    13:00 +35°C° 0 mm 2 mps 759 mmHg 41%
    14:00 +35°C° 0 mm 2 mps 759 mmHg 39%
    15:00 +35°C° 0 mm 2 mps 759 mmHg 38%
    16:00 +33°C° 0 mm 1 mps 759 mmHg 41%
    17:00 +33°C° 0 mm 1 mps 759 mmHg 44%
    18:00 +32°C° 0 mm 1 mps 759 mmHg 46%
    19:00 +31°C° 0 mm 1 mps 759 mmHg 49%
    20:00 +29°C° 0 mm 1 mps 760 mmHg 52%
    21:00 +28°C° 0 mm 2 mps 760 mmHg 56%
    22:00 +28°C° 0 mm 2 mps 760 mmHg 58%
    23:00 +28°C° 0 mm 2 mps 760 mmHg 60%

    25 June, Tuesday

    Time Temperature Precipitation Wind Pressure Humidity
    00:00 +28°C° 0 mm 2 mps 760 mmHg 63%
    01:00 +27°C° 0 mm 2 mps 760 mmHg 64%
    02:00 +27°C° 0 mm 2 mps 760 mmHg 66%
    03:00 +27°C° 0 mm 2 mps 760 mmHg 67%
    04:00 +28°C° 0 mm 2 mps 760 mmHg 65%
    05:00 +29°C° 0 mm 2 mps 760 mmHg 63%
    06:00 +30°C° 0 mm 2 mps 760 mmHg 60%
    07:00 +31°C° 0 mm 2 mps 760 mmHg 56%
    08:00 +34°C° 0 mm 2 mps 760 mmHg 51%
    09:00 +35°C° 0 mm 2 mps 761 mmHg 46%
    10:00 +36°C° 0 mm 2 mps 761 mmHg 44%
    11:00 +36°C° 0 mm 2 mps 761 mmHg 42%
    12:00 +37°C° 0 mm 2 mps 761 mmHg 41%
    13:00 +37°C° 0 mm 2 mps 760 mmHg 41%
    14:00 +36°C° 0 mm 2 mps 760 mmHg 42%
    15:00 +35°C° 0 mm 1 mps 760 mmHg 42%
    16:00 +34°C° 0 mm 1 mps 760 mmHg 45%
    17:00 +34°C° 0 mm 1 mps 760 mmHg 47%
    18:00 +31°C° 0 mm 0 mps 760 mmHg 50%
    19:00 +32°C° 0 mm 1 mps 760 mmHg 52%
    20:00 +31°C° 0 mm 1 mps 761 mmHg 54%
    21:00 +30°C° 0 mm 2 mps 761 mmHg 56%
    22:00 +29°C° 0 mm 2 mps 761 mmHg 57%
    23:00 +29°C° 0 mm 2 mps 761 mmHg 58%
    Show more